QPF
0.10 0.11 0.10 0.10 0.08 0.06 0.05 0.04 0.03 0.01 0.00 0.00 0.00 0.00 0.00 0.00 0.01 0.00 0.01 0.02 0.04 0.04 0.03 0.02 0.01 0.02 0.01 0.02 0.01 0.02 0.03 0.02 0.02 0.03 0.03 0.03 0.02 0.03 0.02 0.01 0.01 0.01 0.01
0.14 0.16 0.16 0.15 0.14 0.12 0.11 0.10 0.08 0.04 0.01 0.00 0.00 0.00 0.00 0.01 0.01 0.00 0.01 0.01 0.02 0.03 0.04 0.03 0.02 0.02 0.02 0.02 0.01 0.01 0.02 0.02 0.02 0.02 0.03 0.02 0.02 0.01 0.01 0.01 0.01 0.01 0.01
0.14 0.14 0.16 0.16 0.14 0.17 0.18 0.19 0.15 0.09 0.03 0.02 0.01 0.00 0.00 0.01 0.02 0.00 0.00 0.00 0.01 0.02 0.03 0.04 0.04 0.04 0.02 0.02 0.03 0.02 0.01 0.01 0.01 0.02 0.02 0.02 0.02 0.01 0.01 0.01 0.00 0.00 0.00
0.13 0.13 0.15 0.14 0.14 0.17 0.18 0.20 0.19 0.15 0.08 0.04 0.02 0.01 0.01 0.01 0.01 0.01 0.00 0.00 0.00 0.00 0.02 0.03 0.04 0.03 0.03 0.03 0.04 0.03 0.02 0.01 0.01 0.01 0.02 0.02 0.01 0.01 0.01 0.01 0.01 0.01 0.01
0.08 0.11 0.13 0.15 0.17 0.18 0.20 0.21 0.19 0.17 0.14 0.09 0.04 0.02 0.02 0.01 0.01 0.01 0.01 0.00 0.00 0.00 0.01 0.02 0.02 0.02 0.02 0.03 0.04 0.03 0.02 0.02 0.01 0.01 0.01 0.01 0.01 0.01 0.01 0.01 0.01 0.01 0.01
0.05 0.07 0.09 0.14 0.18 0.18 0.20 0.23 0.24 0.22 0.18 0.16 0.10 0.05 0.03 0.02 0.02 0.02 0.02 0.01 0.01 0.00 0.00 0.01 0.01 0.02 0.02 0.02 0.03 0.03 0.02 0.02 0.02 0.01 0.01 0.01 0.01 0.01 0.01 0.01 0.01 0.01 0.01
0.04 0.04 0.04 0.09 0.14 0.15 0.17 0.24 0.26 0.23 0.20 0.18 0.15 0.09 0.05 0.03 0.02 0.03 0.03 0.02 0.01 0.01 0.01 0.01 0.01 0.00 0.01 0.01 0.02 0.03 0.03 0.03 0.03 0.02 0.02 0.02 0.01 0.01 0.01 0.01 0.01 0.01 0.01
0.03 0.03 0.03 0.05 0.09 0.13 0.15 0.17 0.20 0.21 0.20 0.20 0.19 0.15 0.09 0.05 0.03 0.03 0.03 0.03 0.02 0.02 0.02 0.02 0.01 0.01 0.00 0.00 0.01 0.01 0.02 0.03 0.03 0.03 0.03 0.03 0.02 0.01 0.01 0.01 0.01 0.01 0.01
0.02 0.02 0.02 0.03 0.05 0.07 0.11 0.13 0.15 0.18 0.18 0.19 0.18 0.18 0.12 0.05 0.04 0.03 0.03 0.04 0.04 0.03 0.03 0.03 0.02 0.02 0.02 0.01 0.01 0.01 0.01 0.01 0.02 0.03 0.03 0.03 0.03 0.02 0.01 0.01 0.01 0.01 0.01
0.02 0.02 0.01 0.01 0.03 0.03 0.06 0.11 0.14 0.16 0.19 0.20 0.18 0.14 0.11 0.07 0.05 0.02 0.02 0.03 0.05 0.04 0.03 0.03 0.02 0.01 0.02 0.02 0.02 0.02 0.02 0.01 0.02 0.03 0.04 0.04 0.04 0.03 0.02 0.02 0.02 0.02 0.01
0.03 0.02 0.02 0.02 0.02 0.02 0.04 0.08 0.12 0.13 0.15 0.20 0.21 0.19 0.14 0.10 0.06 0.04 0.02 0.02 0.03 0.04 0.04 0.04 0.03 0.03 0.04 0.03 0.02 0.03 0.02 0.02 0.02 0.04 0.06 0.06 0.05 0.04 0.03 0.03 0.02 0.02 0.02
0.02 0.02 0.02 0.02 0.03 0.04 0.05 0.06 0.10 0.13 0.14 0.18 0.21 0.22 0.20 0.16 0.11 0.06 0.03 0.03 0.03 0.04 0.04 0.04 0.03 0.02 0.02 0.03 0.03 0.04 0.03 0.03 0.03 0.05 0.07 0.09 0.08 0.07 0.05 0.05 0.05 0.04 0.04
0.03 0.03 0.04 0.03 0.03 0.05 0.07 0.09 0.10 0.11 0.13 0.17 0.22 0.24 0.24 0.22 0.17 0.13 0.09 0.07 0.05 0.04 0.03 0.03 0.04 0.04 0.03 0.03 0.03 0.04 0.04 0.03 0.03 0.03 0.04 0.06 0.06 0.06 0.05 0.06 0.07 0.07 0.07
0.03 0.03 0.03 0.04 0.05 0.06 0.07 0.10 0.10 0.11 0.14 0.15 0.19 0.24 0.26 0.25 0.22 0.17 0.13 0.10 0.07 0.04 0.03 0.03 0.04 0.04 0.04 0.05 0.06 0.07 0.07 0.06 0.05 0.04 0.03 0.04 0.04 0.04 0.03 0.04 0.06 0.06 0.07
0.04 0.04 0.04 0.05 0.06 0.08 0.09 0.09 0.09 0.11 0.15 0.16 0.17 0.22 0.27 0.28 0.29 0.27 0.21 0.15 0.11 0.08 0.05 0.03 0.04 0.04 0.04 0.05 0.06 0.07 0.08 0.09 0.08 0.07 0.05 0.04 0.04 0.04 0.04 0.04 0.05 0.04 0.04
0.06 0.06 0.06 0.06 0.08 0.09 0.10 0.11 0.12 0.14 0.16 0.17 0.18 0.21 0.24 0.28 0.31 0.31 0.29 0.25 0.19 0.13 0.09 0.06 0.05 0.05 0.06 0.06 0.06 0.07 0.08 0.09 0.09 0.08 0.06 0.05 0.05 0.05 0.04 0.04 0.04 0.05 0.05
0.06 0.07 0.11 0.12 0.09 0.09 0.10 0.10 0.12 0.13 0.16 0.18 0.18 0.18 0.18 0.20 0.23 0.24 0.24 0.24 0.22 0.17 0.12 0.09 0.07 0.05 0.05 0.06 0.07 0.07 0.07 0.07 0.07 0.06 0.05 0.05 0.05 0.05 0.05 0.05 0.05 0.05 0.06
0.03 0.05 0.08 0.08 0.07 0.07 0.08 0.12 0.15 0.13 0.12 0.15 0.16 0.16 0.18 0.18 0.18 0.20 0.20 0.22 0.22 0.21 0.17 0.13 0.11 0.08 0.06 0.06 0.07 0.09 0.10 0.10 0.07 0.06 0.06 0.05 0.06 0.06 0.06 0.06 0.06 0.07 0.07
0.03 0.04 0.04 0.05 0.05 0.05 0.05 0.08 0.10 0.13 0.12 0.11 0.12 0.12 0.14 0.14 0.13 0.14 0.15 0.16 0.17 0.18 0.17 0.15 0.13 0.11 0.10 0.09 0.09 0.10 0.12 0.13 0.12 0.10 0.08 0.07 0.06 0.06 0.07 0.07 0.08 0.09 0.09
0.01 0.02 0.02 0.03 0.03 0.04 0.03 0.03 0.06 0.11 0.13 0.13 0.10 0.08 0.10 0.09 0.08 0.10 0.11 0.13 0.14 0.14 0.16 0.15 0.14 0.12 0.11 0.12 0.12 0.12 0.13 0.12 0.13 0.11 0.09 0.07 0.06 0.06 0.06 0.07 0.09 0.09 0.09
0.00 0.01 0.02 0.01 0.02 0.03 0.03 0.01 0.02 0.05 0.08 0.11 0.11 0.08 0.07 0.07 0.07 0.07 0.08 0.10 0.13 0.13 0.14 0.15 0.13 0.11 0.11 0.13 0.14 0.13 0.13 0.14 0.15 0.12 0.10 0.09 0.06 0.04 0.04 0.05 0.06 0.07 0.07
0.00 0.01 0.01 0.01 0.01 0.01 0.02 0.02 0.02 0.02 0.02 0.04 0.09 0.10 0.06 0.04 0.05 0.06 0.06 0.07 0.09 0.10 0.10 0.11 0.10 0.09 0.10 0.10 0.12 0.13 0.13 0.14 0.16 0.12 0.09 0.09 0.07 0.06 0.05 0.05 0.06 0.07 0.06
0.00 0.01 0.01 0.01 0.01 0.01 0.03 0.03 0.02 0.02 0.02 0.02 0.04 0.07 0.05 0.04 0.06 0.06 0.06 0.06 0.05 0.06 0.08 0.09 0.07 0.05 0.06 0.07 0.09 0.10 0.12 0.14 0.14 0.12 0.10 0.10 0.09 0.07 0.06 0.05 0.06 0.05 0.04
0.00 0.00 0.00 0.00 0.00 0.01 0.03 0.02 0.01 0.01 0.02 0.02 0.05 0.08 0.05 0.04 0.07 0.08 0.07 0.06 0.05 0.04 0.04 0.05 0.06 0.06 0.07 0.08 0.08 0.09 0.12 0.15 0.15 0.13 0.10 0.09 0.08 0.06 0.05 0.04 0.04 0.03 0.02
0.00 0.00 0.00 0.00 0.00 0.01 0.02 0.02 0.01 0.01 0.01 0.01 0.04 0.06 0.06 0.03 0.05 0.07 0.06 0.04 0.03 0.03 0.03 0.03 0.05 0.06 0.07 0.10 0.09 0.08 0.10 0.11 0.15 0.16 0.11 0.09 0.07 0.06 0.04 0.03 0.02 0.02 0.02
0.00 0.00 0.00 0.00 0.00 0.00 0.02 0.02 0.01 0.01 0.02 0.03 0.04 0.04 0.04 0.04 0.04 0.05 0.05 0.03 0.03 0.03 0.02 0.03 0.04 0.04 0.06 0.07 0.09 0.10 0.09 0.09 0.10 0.11 0.08 0.06 0.06 0.05 0.04 0.02 0.01 0.01 0.01
MSLP
1014.58 1014.60 1014.57 1014.51 1014.47 1014.48 1014.57 1014.75 1014.99 1015.28 1015.56 1015.81 1016.01 1016.16 1016.25 1016.32 1016.39 1016.48 1016.59 1016.74 1016.89 1017.04 1017.16 1017.26 1017.33 1017.39 1017.46 1017.55 1017.68 1017.85 1018.07 1018.31 1018.56 1018.82 1019.07 1019.31 1019.54 1019.76 1019.97 1020.15 1020.31 1020.43 1020.50
1014.29 1014.27 1014.22 1014.15 1014.12 1014.14 1014.23 1014.41 1014.65 1014.94 1015.23 1015.49 1015.70 1015.86 1015.98 1016.07 1016.16 1016.26 1016.39 1016.54 1016.71 1016.88 1017.04 1017.18 1017.30 1017.42 1017.53 1017.65 1017.80 1017.97 1018.16 1018.38 1018.61 1018.85 1019.09 1019.35 1019.60 1019.85 1020.09 1020.30 1020.48 1020.61 1020.70
1013.99 1013.95 1013.90 1013.85 1013.83 1013.87 1013.98 1014.16 1014.41 1014.68 1014.97 1015.23 1015.45 1015.62 1015.75 1015.85 1015.94 1016.04 1016.16 1016.30 1016.46 1016.63 1016.82 1017.00 1017.17 1017.35 1017.52 1017.69 1017.86 1018.04 1018.23 1018.42 1018.62 1018.84 1019.06 1019.31 1019.57 1019.83 1020.09 1020.33 1020.54 1020.71 1020.82
1013.70 1013.66 1013.63 1013.61 1013.63 1013.70 1013.82 1014.01 1014.25 1014.51 1014.78 1015.04 1015.26 1015.44 1015.57 1015.67 1015.75 1015.83 1015.92 1016.03 1016.16 1016.33 1016.51 1016.73 1016.95 1017.18 1017.42 1017.65 1017.87 1018.08 1018.27 1018.45 1018.63 1018.81 1019.01 1019.23 1019.48 1019.74 1020.02 1020.28 1020.52 1020.71 1020.85
1013.43 1013.41 1013.41 1013.43 1013.48 1013.58 1013.72 1013.91 1014.14 1014.39 1014.65 1014.89 1015.11 1015.29 1015.43 1015.53 1015.61 1015.66 1015.71 1015.77 1015.87 1016.00 1016.18 1016.40 1016.66 1016.95 1017.25 1017.54 1017.82 1018.06 1018.28 1018.46 1018.62 1018.78 1018.95 1019.14 1019.37 1019.62 1019.89 1020.17 1020.42 1020.64 1020.81
1013.20 1013.19 1013.21 1013.27 1013.35 1013.47 1013.63 1013.81 1014.02 1014.26 1014.50 1014.75 1014.98 1015.17 1015.33 1015.44 1015.51 1015.54 1015.56 1015.57 1015.62 1015.71 1015.86 1016.07 1016.35 1016.68 1017.03 1017.38 1017.71 1018.00 1018.25 1018.44 1018.60 1018.75 1018.90 1019.07 1019.27 1019.51 1019.76 1020.03 1020.28 1020.51 1020.70
1013.01 1012.99 1013.02 1013.09 1013.19 1013.32 1013.47 1013.64 1013.83 1014.06 1014.30 1014.56 1014.81 1015.04 1015.23 1015.38 1015.46 1015.49 1015.48 1015.46 1015.45 1015.50 1015.61 1015.80 1016.07 1016.41 1016.79 1017.19 1017.56 1017.89 1018.17 1018.38 1018.56 1018.71 1018.85 1019.01 1019.20 1019.42 1019.65 1019.90 1020.14 1020.37 1020.56
1012.88 1012.82 1012.83 1012.89 1012.98 1013.08 1013.21 1013.36 1013.53 1013.74 1013.99 1014.27 1014.57 1014.85 1015.10 1015.30 1015.43 1015.48 1015.47 1015.43 1015.39 1015.38 1015.45 1015.60 1015.84 1016.17 1016.55 1016.96 1017.35 1017.71 1018.01 1018.26 1018.46 1018.63 1018.78 1018.95 1019.14 1019.35 1019.57 1019.80 1020.02 1020.22 1020.41
1012.80 1012.69 1012.65 1012.65 1012.69 1012.76 1012.84 1012.95 1013.10 1013.30 1013.56 1013.86 1014.21 1014.56 1014.89 1015.16 1015.36 1015.45 1015.47 1015.44 1015.38 1015.35 1015.37 1015.48 1015.68 1015.97 1016.32 1016.71 1017.09 1017.45 1017.77 1018.04 1018.26 1018.46 1018.65 1018.85 1019.05 1019.27 1019.49 1019.71 1019.91 1020.09 1020.25
1012.80 1012.60 1012.48 1012.41 1012.38 1012.37 1012.39 1012.45 1012.56 1012.74 1013.00 1013.33 1013.73 1014.15 1014.56 1014.91 1015.18 1015.35 1015.42 1015.41 1015.37 1015.33 1015.33 1015.39 1015.55 1015.78 1016.09 1016.42 1016.77 1017.11 1017.42 1017.70 1017.95 1018.19 1018.42 1018.66 1018.91 1019.16 1019.40 1019.62 1019.82 1019.99 1020.13
1012.87 1012.59 1012.37 1012.21 1012.08 1011.98 1011.92 1011.91 1011.97 1012.11 1012.36 1012.70 1013.13 1013.60 1014.07 1014.49 1014.85 1015.09 1015.23 1015.28 1015.28 1015.25 1015.25 1015.30 1015.41 1015.60 1015.84 1016.12 1016.41 1016.70 1016.99 1017.26 1017.53 1017.80 1018.08 1018.38 1018.68 1018.98 1019.26 1019.51 1019.72 1019.89 1020.02
1013.02 1012.65 1012.34 1012.07 1011.85 1011.65 1011.50 1011.41 1011.39 1011.49 1011.69 1012.02 1012.44 1012.92 1013.43 1013.90 1014.31 1014.63 1014.84 1014.96 1015.02 1015.05 1015.08 1015.14 1015.24 1015.39 1015.58 1015.79 1016.02 1016.26 1016.50 1016.75 1017.03 1017.33 1017.65 1018.01 1018.37 1018.73 1019.07 1019.36 1019.59 1019.78 1019.93
1013.24 1012.80 1012.40 1012.04 1011.72 1011.43 1011.18 1011.00 1010.90 1010.92 1011.06 1011.33 1011.71 1012.17 1012.66 1013.15 1013.59 1013.95 1014.23 1014.44 1014.58 1014.68 1014.77 1014.88 1015.00 1015.14 1015.30 1015.47 1015.65 1015.83 1016.03 1016.25 1016.51 1016.83 1017.19 1017.59 1018.01 1018.43 1018.82 1019.16 1019.44 1019.66 1019.83
1013.49 1013.00 1012.54 1012.11 1011.70 1011.33 1011.00 1010.73 1010.54 1010.47 1010.52 1010.71 1011.01 1011.39 1011.83 1012.29 1012.72 1013.11 1013.44 1013.71 1013.94 1014.14 1014.32 1014.50 1014.68 1014.85 1015.01 1015.17 1015.32 1015.46 1015.62 1015.82 1016.06 1016.37 1016.75 1017.17 1017.64 1018.10 1018.53 1018.92 1019.24 1019.50 1019.71
1013.76 1013.24 1012.74 1012.26 1011.79 1011.35 1010.95 1010.60 1010.33 1010.16 1010.12 1010.20 1010.39 1010.67 1011.02 1011.41 1011.80 1012.18 1012.53 1012.86 1013.17 1013.46 1013.75 1014.02 1014.28 1014.52 1014.73 1014.91 1015.06 1015.19 1015.33 1015.51 1015.74 1016.04 1016.41 1016.84 1017.31 1017.79 1018.25 1018.66 1019.02 1019.32 1019.56
1014.00 1013.48 1012.96 1012.45 1011.95 1011.46 1011.01 1010.60 1010.26 1010.01 1009.87 1009.84 1009.91 1010.08 1010.31 1010.60 1010.92 1011.26 1011.61 1011.96 1012.33 1012.71 1013.09 1013.47 1013.83 1014.16 1014.45 1014.68 1014.87 1015.03 1015.18 1015.35 1015.57 1015.85 1016.21 1016.62 1017.08 1017.55 1018.01 1018.42 1018.79 1019.11 1019.38
1014.20 1013.69 1013.17 1012.65 1012.13 1011.62 1011.14 1010.69 1010.30 1009.99 1009.77 1009.64 1009.61 1009.66 1009.78 1009.97 1010.19 1010.46 1010.77 1011.13 1011.52 1011.95 1012.40 1012.88 1013.34 1013.77 1014.15 1014.47 1014.73 1014.95 1015.14 1015.33 1015.56 1015.83 1016.17 1016.55 1016.97 1017.41 1017.83 1018.22 1018.58 1018.89 1019.17
1014.35 1013.84 1013.33 1012.81 1012.30 1011.79 1011.29 1010.84 1010.42 1010.08 1009.80 1009.61 1009.49 1009.45 1009.46 1009.54 1009.67 1009.86 1010.11 1010.42 1010.80 1011.24 1011.74 1012.27 1012.81 1013.33 1013.81 1014.23 1014.59 1014.89 1015.15 1015.39 1015.65 1015.93 1016.25 1016.61 1016.99 1017.37 1017.75 1018.09 1018.41 1018.70 1018.98
1014.45 1013.96 1013.45 1012.95 1012.44 1011.94 1011.45 1011.00 1010.58 1010.22 1009.93 1009.70 1009.53 1009.41 1009.35 1009.34 1009.38 1009.48 1009.64 1009.88 1010.21 1010.62 1011.12 1011.67 1012.26 1012.85 1013.41 1013.93 1014.39 1014.79 1015.14 1015.46 1015.77 1016.09 1016.41 1016.75 1017.10 1017.44 1017.76 1018.06 1018.33 1018.58 1018.83
1014.54 1014.05 1013.56 1013.07 1012.57 1012.08 1011.61 1011.17 1010.77 1010.41 1010.12 1009.88 1009.68 1009.53 1009.41 1009.33 1009.29 1009.29 1009.37 1009.52 1009.77 1010.12 1010.57 1011.10 1011.69 1012.32 1012.95 1013.55 1014.10 1014.61 1015.07 1015.49 1015.87 1016.24 1016.60 1016.94 1017.27 1017.58 1017.86 1018.12 1018.34 1018.56 1018.78
1014.65 1014.17 1013.69 1013.21 1012.72 1012.24 1011.78 1011.35 1010.96 1010.63 1010.34 1010.10 1009.91 1009.74 1009.59 1009.46 1009.35 1009.28 1009.26 1009.31 1009.46 1009.72 1010.10 1010.57 1011.14 1011.77 1012.43 1013.09 1013.73 1014.34 1014.90 1015.42 1015.90 1016.34 1016.75 1017.13 1017.48 1017.78 1018.05 1018.28 1018.47 1018.66 1018.85
1014.80 1014.34 1013.88 1013.41 1012.93 1012.45 1012.00 1011.57 1011.19 1010.87 1010.59 1010.36 1010.17 1009.99 1009.83 1009.67 1009.51 1009.37 1009.27 1009.23 1009.28 1009.44 1009.73 1010.13 1010.65 1011.26 1011.92 1012.62 1013.32 1014.01 1014.66 1015.28 1015.85 1016.37 1016.85 1017.29 1017.67 1018.00 1018.28 1018.52 1018.71 1018.89 1019.07
1015.01 1014.59 1014.15 1013.69 1013.22 1012.75 1012.29 1011.86 1011.48 1011.14 1010.87 1010.64 1010.45 1010.27 1010.09 1009.91 1009.72 1009.53 1009.36 1009.25 1009.22 1009.29 1009.49 1009.82 1010.28 1010.84 1011.49 1012.20 1012.94 1013.68 1014.40 1015.09 1015.74 1016.34 1016.90 1017.40 1017.84 1018.22 1018.54 1018.81 1019.04 1019.23 1019.42
1015.28 1014.91 1014.51 1014.08 1013.62 1013.15 1012.68 1012.24 1011.83 1011.48 1011.19 1010.95 1010.74 1010.55 1010.37 1010.17 1009.96 1009.74 1009.53 1009.37 1009.28 1009.29 1009.42 1009.69 1010.09 1010.61 1011.23 1011.93 1012.67 1013.42 1014.18 1014.92 1015.62 1016.28 1016.90 1017.46 1017.96 1018.41 1018.79 1019.12 1019.39 1019.62 1019.84
1015.58 1015.28 1014.93 1014.53 1014.09 1013.63 1013.15 1012.69 1012.26 1011.88 1011.56 1011.30 1011.07 1010.86 1010.66 1010.45 1010.23 1010.00 1009.78 1009.60 1009.48 1009.45 1009.55 1009.77 1010.13 1010.61 1011.19 1011.86 1012.58 1013.32 1014.08 1014.82 1015.54 1016.22 1016.87 1017.48 1018.03 1018.54 1018.98 1019.37 1019.71 1020.00 1020.26
1015.87 1015.63 1015.35 1014.99 1014.59 1014.13 1013.66 1013.19 1012.74 1012.34 1011.99 1011.69 1011.44 1011.22 1011.01 1010.79 1010.56 1010.34 1010.12 1009.94 1009.83 1009.80 1009.88 1010.08 1010.41 1010.85 1011.40 1012.02 1012.70 1013.40 1014.12 1014.83 1015.52 1016.19 1016.84 1017.46 1018.05 1018.59 1019.09 1019.54 1019.94 1020.30 1020.60
Thickness
5741 5742 5744 5745 5746 5747 5748 5748 5747 5747 5747 5747 5747 5747 5747 5748 5749 5750 5750 5751 5751 5751 5751 5750 5749 5749 5749 5749 5749 5749 5749 5748 5748 5747 5747 5747 5746 5746 5745 5745 5744 5744 5743
5737 5738 5740 5741 5743 5744 5745 5746 5745 5745 5745 5745 5745 5746 5747 5748 5748 5749 5750 5750 5750 5750 5750 5750 5749 5749 5748 5748 5748 5748 5747 5747 5746 5746 5745 5745 5745 5744 5744 5743 5743 5742 5741
5732 5734 5735 5737 5739 5740 5741 5742 5742 5741 5742 5742 5743 5744 5746 5747 5748 5749 5749 5750 5750 5749 5749 5749 5749 5748 5748 5747 5747 5747 5746 5745 5745 5745 5744 5744 5743 5743 5742 5741 5741 5740 5739
5725 5728 5730 5733 5735 5736 5737 5737 5737 5737 5738 5738 5740 5742 5744 5746 5747 5748 5749 5749 5749 5749 5748 5748 5748 5747 5747 5746 5746 5746 5745 5744 5744 5743 5743 5742 5741 5741 5740 5739 5738 5738 5737
5719 5722 5724 5727 5729 5731 5733 5733 5733 5733 5733 5733 5735 5738 5740 5742 5745 5746 5747 5747 5747 5747 5747 5747 5746 5746 5745 5745 5745 5745 5744 5743 5743 5742 5741 5741 5740 5739 5738 5737 5736 5736 5735
5711 5715 5718 5720 5723 5725 5727 5728 5729 5729 5729 5729 5731 5733 5735 5738 5741 5743 5744 5745 5745 5745 5745 5745 5745 5744 5744 5744 5743 5743 5743 5742 5741 5740 5740 5739 5738 5737 5736 5735 5734 5734 5733
5703 5706 5710 5713 5715 5718 5721 5723 5724 5723 5724 5725 5722 5723 5727 5732 5735 5738 5740 5741 5742 5742 5742 5742 5742 5742 5742 5742 5741 5741 5741 5741 5740 5739 5738 5737 5736 5735 5734 5733 5733 5732 5731
5694 5698 5701 5704 5708 5710 5713 5716 5718 5718 5719 5720 5718 5714 5714 5719 5727 5733 5735 5736 5738 5739 5739 5740 5740 5740 5740 5740 5740 5739 5739 5739 5738 5738 5737 5736 5735 5733 5732 5731 5731 5730 5728
5686 5689 5693 5696 5699 5703 5706 5709 5712 5714 5713 5715 5717 5714 5710 5710 5717 5723 5728 5732 5734 5735 5736 5737 5738 5738 5738 5738 5738 5737 5737 5736 5736 5736 5735 5734 5733 5732 5731 5729 5728 5727 5726
5679 5682 5685 5688 5691 5695 5699 5703 5707 5709 5710 5709 5711 5714 5716 5716 5712 5713 5719 5725 5728 5730 5732 5734 5735 5735 5735 5735 5735 5735 5735 5734 5733 5733 5732 5732 5731 5729 5728 5727 5726 5724 5723
5671 5675 5677 5681 5684 5688 5692 5696 5700 5703 5706 5707 5707 5708 5709 5711 5712 5710 5710 5715 5720 5725 5728 5730 5731 5732 5732 5732 5732 5733 5732 5731 5730 5730 5729 5729 5728 5727 5725 5724 5723 5721 5720
5664 5668 5671 5674 5677 5681 5686 5690 5694 5697 5700 5702 5704 5705 5707 5706 5706 5707 5707 5709 5712 5717 5721 5724 5726 5728 5729 5729 5729 5729 5729 5728 5727 5726 5726 5725 5724 5723 5722 5721 5719 5718 5716
5656 5660 5664 5667 5671 5675 5680 5684 5688 5691 5694 5697 5699 5702 5704 5705 5706 5706 5705 5704 5706 5709 5713 5717 5721 5723 5724 5725 5725 5725 5725 5724 5723 5722 5721 5721 5720 5719 5718 5717 5715 5714 5712
5650 5654 5657 5661 5665 5669 5674 5678 5682 5685 5688 5691 5694 5697 5699 5701 5702 5703 5703 5701 5698 5700 5705 5710 5714 5717 5719 5720 5721 5721 5720 5720 5719 5718 5717 5716 5715 5714 5713 5712 5710 5709 5708
5645 5648 5651 5655 5659 5663 5667 5671 5675 5678 5681 5685 5688 5690 5692 5695 5697 5698 5699 5700 5697 5694 5696 5703 5706 5711 5712 5714 5714 5715 5715 5715 5714 5713 5712 5711 5710 5709 5707 5706 5705 5703 5702
5639 5642 5645 5648 5651 5655 5658 5663 5667 5671 5674 5677 5681 5683 5685 5688 5690 5691 5693 5694 5695 5694 5693 5697 5700 5703 5706 5707 5708 5708 5708 5708 5708 5707 5706 5705 5704 5703 5701 5700 5698 5697 5696
5633 5635 5638 5640 5643 5647 5650 5654 5659 5663 5666 5670 5673 5676 5678 5680 5682 5684 5685 5688 5688 5689 5688 5689 5693 5695 5697 5699 5700 5701 5701 5701 5701 5700 5700 5699 5698 5696 5695 5694 5692 5690 5689
5628 5629 5631 5633 5636 5639 5642 5646 5650 5655 5658 5661 5664 5667 5670 5672 5674 5677 5679 5681 5682 5683 5683 5682 5684 5686 5688 5691 5692 5692 5692 5693 5693 5692 5692 5691 5690 5689 5688 5686 5685 5683 5682
5624 5624 5625 5627 5629 5632 5635 5638 5642 5646 5650 5652 5656 5658 5661 5665 5666 5670 5672 5673 5675 5677 5678 5678 5677 5679 5680 5681 5682 5683 5683 5683 5683 5682 5682 5682 5681 5680 5679 5678 5677 5676 5674
5620 5620 5620 5621 5623 5626 5629 5632 5636 5639 5642 5644 5647 5650 5654 5657 5660 5663 5664 5666 5668 5669 5670 5671 5671 5671 5672 5672 5673 5673 5672 5673 5672 5673 5672 5672 5671 5671 5671 5670 5670 5669 5667
5617 5616 5616 5617 5619 5621 5624 5627 5630 5633 5634 5637 5640 5643 5647 5651 5654 5657 5658 5659 5660 5662 5663 5665 5665 5665 5665 5665 5665 5666 5665 5663 5662 5663 5662 5661 5661 5661 5661 5661 5661 5660 5659
5615 5614 5613 5613 5614 5617 5620 5623 5624 5626 5628 5631 5633 5636 5640 5644 5647 5651 5653 5654 5656 5657 5658 5659 5659 5660 5660 5661 5660 5660 5658 5656 5653 5653 5653 5650 5651 5651 5651 5651 5651 5651 5650
5614 5612 5610 5610 5610 5612 5615 5618 5619 5620 5622 5624 5627 5629 5634 5637 5640 5643 5646 5648 5650 5653 5656 5656 5656 5656 5656 5657 5656 5654 5652 5651 5649 5646 5645 5641 5641 5640 5640 5641 5641 5642 5641
5613 5611 5609 5607 5608 5609 5612 5614 5614 5615 5617 5619 5621 5624 5628 5631 5635 5637 5640 5641 5643 5646 5649 5651 5652 5652 5653 5653 5653 5651 5647 5644 5641 5639 5639 5634 5631 5630 5630 5631 5632 5633 5633
5614 5611 5609 5607 5606 5607 5609 5610 5611 5611 5612 5614 5617 5620 5623 5626 5630 5633 5635 5635 5637 5640 5643 5645 5646 5647 5648 5648 5647 5644 5640 5639 5634 5632 5631 5630 5625 5623 5622 5621 5623 5624 5624
5616 5614 5611 5608 5606 5606 5608 5609 5609 5608 5609 5611 5613 5616 5620 5623 5626 5628 5630 5631 5632 5634 5637 5638 5639 5640 5640 5640 5641 5641 5639 5636 5632 5628 5626 5625 5621 5620 5616 5614 5615 5616 5616